Fuji-OSCAR-12

operational
NORAD ID: 16909 Int'l Des: 1986-061 Owner: JARL Country: J
LEOCIRCULAR

About Fuji-OSCAR-12

Description loading...

Live Position

Loading 3D Globe...

Upcoming Passes

Altitude History

Altitude vs Time

uPlot chart will show altitude changes over time

Two-Line Element Set

1 16909U 86061B 26062.52251671 -.00000075 00000-0 15396-3 0 9991
2 16909 50.0141 118.2172 0011053 252.1929 246.9104 12.44485579798931
Epoch: Mar 3, 2026 • Age: 22 hours

Current Status

Altitude 1492.8 km
Velocity 7.12 km/s
Sub-Earth Point 15.84°N, 5.93°E
Launch Date Aug 12, 1986
Age 39.5 years
Type other

Technical Details

Classification Payload
Mass 50.00 kg
Dry Mass 50.00 kg
Total Mass 50.00 kg
Length 0.50 m
Diameter 0.40 m
Span 0.50 m
Shape Poly
Manufacturer JARL
Bus Type JAS
Phase Status In Orbit
Owner/State JARL/J

Large Constellations

Loading constellations...